CZ-2C R/B

Satellite information

Favourite Embed

Satellite Type and Status

ROCKET BODYIN ORBIT

Key statistics

Satellite CZ-2C R/B at a glance.

Uptime

1957

Days in orbit

Revolutions

≈ 14.5

Per day

Orbit

SSO

Sun Synchronous Orbit

Inclination

98.7

Latest

Satellite identification and parameters

Extended collection of information and parameters for CZ-2C R/B.

Object identification

Identified? True

Debris? False

Object name: CZ-2C R/B

International designator: 2020-036B

Object number (NORAD): 45722

Object ID (CCSDS): 45722

Country: PEOPLES REPUBLIC OF CHINA (PRC)

Current information (Y/N): Y

RCS size: LARGE

Orbital parameters

Period: 99.482 minutes

Inclination: 98.7427 deg

SMA: 7111.955 km

Apoapsis: 768.948 km

Periapsis: 698.691 km

RAAN: 304.6009 deg

Eccentricy: 0.0049393

Argument of periapsis: 304.7271 deg

Mean anomaly: 54.9274 deg

Mean motion: 14.47502451 rev/day

Mean motion (dot): 0.00000439 rev/day2

B* drag term: 0.0001308538 1/REarth

Two-line elements (TLE)

Creation date: Oct. 19, 2025, 2:20 a.m.

Reference frame: TEME

Reference center: EARTH

Epoch: Oct. 18, 2025, 10:41 p.m. UTC

TLE line 0: 0 CZ-2C R/B

TLE line 1: 1 45722U 20036B 25291.94551588 .00000439 00000-0 13085-3 0 9991

TLE line 2: 2 45722 98.7427 304.6009 0049393 304.7271 54.9274 14.47502451282829

Live tracking on map

Real-time ground track for satellite CZ-2C R/B.

In-orbit conjunctions

A list of the most updated potential collisions computed for object CZ-2C R/B.

Target Orbit TCA Probability of collision Miss distance Type
METEOR 2-8 DEB LEO 2025-08-27 09:25:55 0.0006231011 198.0 (m) DEBRIS
COSMOS 2251 DEB LEO 2025-05-07 03:12:59 0.000166507 130.0 (m) DEBRIS
FENGYUN 1C DEB SSO 2025-04-07 23:09:15 0.0002243568 480.0 (m) DEBRIS
FENGYUN 1C DEB SSO 2025-03-04 05:02:45 0.0001129989 469.0 (m) DEBRIS
CZ-6A DEB LEO 2024-11-14 04:35:16 0.0002335994 569.0 (m) DEBRIS

Associated space launch

Haiyang is a series of Chinese marine remote sensing satellites. Haiyang 1C is the follow-up of the Haiyang 1A and 1B satellites. It is intended for ocean monitoring and will be providing data on the temperature and dynamics of coastal waters and global oceans in China.

CZ-2C R/B was lifted into orbit during the mission ‘Long March 2C | Haiyang 1D’, on board a Long March 2 space rocket.

The launch took place on June 10, 2020, 6:31 p.m. from Launch Complex 9.

For more information about the launch, click the button.

Launch to space Long March 2C | Haiyang 1D
Long March 2C | Haiyang 1D

Agency: N/A

Status: Launch Successful

Launch date: June 10, 2020, 6:31 p.m. UTC

Rocket: Long March 2

Launch pad: Launch Complex 9

Location: Taiyuan Satellite Launch Center, People's Republic of China

...

Latest news about this satellite

News about space launch
Long March 2C lofts Haiyang-1D

News about space launch
China launches ocean monitoring satellite

News about space launch
China launches Haiyang-1D ocean observation satellite


Newsletter sign-up

Weekly statistics, charts and insights to help you stay on top of the space industry.